[[{"header":{"parameterUnit":"m.s-1","parameterCategory":2,"la1":30.2991,"la2":30.254,"lo1":-89.0895,"lo2":-89.0444,"dy":0.0017,"dx":0.0017,"nx":28,"ny":28,"refTime":"2025-02-12T03:00:00:Z","depth":"0","parameterNumber":2,"parameterNumberName":"U-component_of_CURRENTS"},"data":[0,0,0,0,0,0,0,0,0,0,0,0,0,0,0,0,0,0,0,0,0,0,0,0,0,0,0,0,0,0,0,0,0,0,0,0,0,0,0,0,0,0,0,0,0,0,0,0,0,0,0,0,0,0,0,0,0,0,-0.2424,-0.2424,0,-0.244,-0.244,-0.244,-0.242,-0.2419,-0.2419,-0.2418,-0.2386,-0.2386,-0.2386,0,0,0,0,0,0,0,0,0,0,0,0,0,-0.2366,-0.2367,-0.2424,-0.2425,-0.2425,-0.244,-0.244,-0.244,-0.242,-0.2419,-0.2418,-0.2418,-0.2386,-0.2386,-0.2386,0,0,0,0,0,0,0,0,0,0,0,0,0,-0.2385,-0.2367,-0.2424,-0.2419,-0.2418,-0.244,-0.244,-0.244,-0.242,-0.2419,-0.2418,-0.2418,-0.2387,-0.2386,-0.2386,-0.2397,0,0,-0.2384,-0.2384,0,0,0,0,0,0,0,0,-0.2384,-0.2387,-0.2419,-0.2419,-0.2419,-0.2429,-0.2408,-0.2424,-0.242,-0.2417,-0.2418,-0.2417,-0.2398,-0.2397,-0.2399,-0.2396,-0.2395,-0.2384,-0.2383,-0.2383,-0.2383,0,0,0,0,0,0,0,-0.2383,-0.2386,-0.2428,-0.2419,-0.2419,-0.2412,-0.2413,-0.2411,-0.2409,-0.2417,-0.2416,-0.2422,-0.2398,-0.2399,-0.2398,-0.2394,-0.2384,-0.2383,-0.2383,-0.2383,-0.2424,-0.2425,0,0,0,0,0,0,-0.2388,-0.2385,-0.2427,-0.2429,-0.2402,-0.2414,-0.2415,-0.2425,-0.241,-0.2408,-0.2423,-0.2421,-0.2401,-0.2398,-0.2396,-0.2423,-0.2383,-0.2383,-0.2382,-0.2422,-0.2424,-0.2426,0,0,0,0,0,0,-0.2386,-0.2391,-0.2427,-0.2409,-0.2413,-0.2416,-0.2426,-0.2425,-0.2423,-0.2415,-0.2412,-0.2421,-0.24,-0.2397,-0.2399,-0.2421,-0.2382,-0.2382,-0.2421,-0.2423,-0.2425,-0.2467,0,0,0,0,0,0,-0.2385,-0.2391,-0.2393,-0.2409,-0.2414,-0.2441,-0.2427,-0.2426,-0.243,-0.2428,-0.2413,-0.241,-0.2399,-0.24,-0.2399,-0.2419,-0.2382,-0.2419,-0.2422,-0.2424,-0.2464,-0.247,-0.2476,0,0,0,0,0,-0.2382,-0.2391,-0.2393,-0.2398,-0.2419,-0.2442,-0.2444,-0.2441,-0.243,-0.2435,-0.2428,-0.241,-0.2417,-0.2401,-0.2399,-0.242,-0.2418,-0.2421,-0.2424,-0.2461,-0.2469,-0.2476,0,0,0,0,0,0,-0.2363,-0.2391,-0.2393,-0.2408,-0.2425,-0.244,-0.2442,-0.2443,-0.2441,-0.2435,-0.2421,-0.2418,-0.243,-0.2422,-0.2405,-0.2442,-0.2417,-0.242,-0.2446,-0.2454,-0.246,-0.2444,-0.2381,0,0,0,0,0,-0.2363,-0.2375,-0.2402,-0.2411,-0.2421,-0.2431,-0.2437,-0.2441,-0.2446,-0.2444,-0.2436,-0.2435,-0.2445,-0.2444,-0.2447,-0.2461,-0.2427,-0.2477,-0.2484,-0.2489,-0.2477,-0.2454,-0.2455,-0.2436,-0.2436,-0.2436,0,0,-0.2356,-0.2373,-0.2379,-0.2408,-0.2417,-0.244,-0.2432,-0.2446,-0.2463,-0.2441,-0.2451,-0.2451,-0.2453,-0.2474,-0.2479,-0.2466,-0.2476,-0.2493,-0.2497,-0.2482,-0.2457,-0.2458,-0.246,-0.2438,-0.2438,-0.2438,0,0,-0.2356,-0.2367,-0.2381,-0.2402,-0.2426,-0.244,-0.2446,-0.2465,-0.2469,-0.2486,-0.248,-0.249,-0.2498,-0.2507,-0.2514,-0.2554,-0.2508,-0.2563,-0.2579,-0.2558,-0.2558,-0.2558,-0.251,-0.2505,-0.2567,-0.2567,-0.2567,0,-0.2346,-0.237,-0.2387,-0.2411,-0.2429,-0.2442,-0.2465,-0.248,-0.2496,-0.2504,-0.2493,-0.2517,-0.2516,-0.2547,-0.2562,-0.2566,-0.2533,-0.255,-0.2563,-0.2562,-0.2561,-0.2512,-0.2506,-0.2569,-0.2569,-0.2569,-0.2569,0,-0.2359,-0.2382,-0.2393,-0.243,-0.2452,-0.2473,-0.2505,-0.2522,-0.2529,-0.2541,-0.2564,-0.2565,-0.2575,-0.259,-0.2585,-0.2597,-0.2567,-0.257,-0.2538,-0.2565,-0.2512,-0.2505,-0.2573,-0.2572,-0.2571,-0.2571,0,0,-0.2325,-0.239,-0.2392,-0.2414,-0.2465,-0.2483,-0.2524,-0.2561,-0.2575,-0.2593,-0.2605,-0.2635,-0.2625,-0.2631,-0.2633,-0.2617,-0.2586,-0.259,-0.2588,-0.2529,-0.251,-0.2424,-0.2407,-0.2587,-0.2586,-0.2585,-0.2471,0,-0.2326,-0.2372,-0.2409,-0.245,-0.2475,-0.2516,-0.255,-0.2586,-0.2605,-0.2619,-0.2632,-0.2641,-0.2646,-0.2644,-0.2636,-0.2599,-0.2571,-0.2614,-0.2502,-0.2498,-0.2408,-0.2398,-0.2299,-0.2183,-0.2464,-0.2463,-0.2462,0,-0.2321,-0.2355,-0.2397,-0.2461,-0.2475,-0.2502,-0.2552,-0.2587,-0.2625,-0.2637,-0.2656,-0.2655,-0.2654,-0.2642,-0.2588,-0.2613,-0.2559,-0.2524,-0.2519,-0.2415,-0.2399,-0.2204,-0.216,-0.2146,-0.2451,-0.2452,-0.2453,0,-0.2272,-0.2343,-0.2373,-0.2396,-0.2471,-0.2493,-0.2531,-0.2582,-0.2608,-0.2638,-0.2642,-0.2651,-0.2635,-0.2592,-0.2529,-0.2552,-0.2437,-0.2465,-0.2333,-0.2326,-0.2205,-0.2188,-0.212,-0.2404,-0.2404,-0.2404,-0.2404,0,-0.2254,-0.2274,-0.235,-0.2363,-0.2393,-0.246,-0.2489,-0.2532,-0.2579,-0.2592,-0.2636,-0.2625,-0.2618,-0.2562,-0.251,-0.2384,-0.2421,-0.2314,-0.2288,-0.2217,-0.2203,-0.2157,-0.2189,-0.24,-0.2401,-0.2402,-0.2402,0,-0.2185,-0.2241,-0.2273,-0.2347,-0.2368,-0.2383,-0.2458,-0.2476,-0.2537,-0.2549,-0.2555,-0.2586,-0.2511,-0.2476,-0.2385,-0.2339,-0.2192,-0.2184,-0.2086,-0.2051,-0.1928,-0.1967,-0.1858,-0.1808,-0.2026,-0.2023,-0.202,0,-0.215,-0.2159,-0.2232,-0.2244,-0.2272,-0.2314,-0.2338,-0.243,-0.2455,-0.2509,-0.2499,-0.2461,-0.2387,-0.2234,-0.2142,-0.2012,-0.2049,-0.187,-0.1905,-0.1883,-0.1909,-0.1952,-0.1922,-0.176,-0.1756,-0.1752,-0.1749,0,-0.2068,-0.2094,-0.2118,-0.2145,-0.2171,-0.2204,-0.2251,-0.2266,-0.236,-0.2364,-0.2334,-0.2276,-0.2155,-0.198,-0.1845,-0.1773,-0.183,-0.1792,-0.1798,-0.1707,-0.1719,-0.167,-0.187,-0.1718,-0.1721,-0.1723,-0.1725,-0.1726,-0.1987,-0.1981,-0.2011,-0.2022,-0.2053,-0.2058,-0.2037,-0.2093,-0.2092,-0.2071,-0.2112,-0.1982,-0.1885,-0.1669,-0.1595,-0.1472,-0.1562,-0.145,-0.1498,-0.1544,-0.1495,-0.1608,-0.1419,-0.142,-0.1421,-0.1422,-0.1423,0,-0.187,-0.1876,-0.1884,-0.189,-0.1863,-0.1926,-0.1943,-0.1893,-0.1831,-0.1835,-0.1771,-0.1623,-0.1459,-0.1401,-0.1278,-0.121,-0.1209,-0.1206,-0.1261,-0.1245,-0.1347,-0.1335,-0.1083,-0.1083,-0.1083,-0.1083,-0.1083,-0.1083,-0.1811,-0.177,-0.1774,-0.1686,-0.1685,-0.1602,-0.1575,-0.1518,-0.1486,-0.1345,-0.1272,-0.1226,-0.1205,-0.1276,-0.1176,-0.1117,-0.1124,-0.1076,-0.1128,-0.1231,-0.1259,-0.1286,-0.1282,-0.1022,-0.1022,-0.097,-0.097,-0.097]},{"header":{"parameterUnit":"m.s-1","parameterCategory":2,"la1":30.2991,"la2":30.254,"lo1":-89.0895,"lo2":-89.0444,"dy":0.0017,"dx":0.0017,"nx":28,"ny":28,"refTime":"2025-02-12T03:00:00:Z","depth":"0","parameterNumber":3,"parameterNumberName":"V-component_of_CURRENTS"},"data":[0,0,0,0,0,0,0,0,0,0,0,0,0,0,0,0,0,0,0,0,0,0,0,0,0,0,0,0,0,0,0,0,0,0,0,0,0,0,0,0,0,0,0,0,0,0,0,0,0,0,0,0,0,0,0,0,0,0,-0.021,-0.021,0,-0.0155,-0.0154,-0.0153,-0.0107,-0.0107,-0.0106,-0.0106,0.004,0.0043,0.0047,0,0,0,0,0,0,0,0,0,0,0,0,0,-0.0235,-0.0235,-0.021,-0.021,-0.0209,-0.0155,-0.0154,-0.0153,-0.0107,-0.0107,-0.0106,-0.0106,0.0039,0.0043,0.0047,0,0,0,0,0,0,0,0,0,0,0,0,0,-0.0205,-0.0235,-0.021,-0.0181,-0.0178,-0.0155,-0.0154,-0.0153,-0.0107,-0.0107,-0.0106,-0.0106,0.0037,0.0042,0.0048,0.0069,0,0,0.0064,0.0066,0,0,0,0,0,0,0,0,-0.0207,-0.0204,-0.0186,-0.0183,-0.0179,-0.0139,-0.0109,-0.0074,-0.0108,-0.0133,-0.0106,-0.0105,-0.0013,-0.0003,0.0007,0.0076,0.0083,0.0064,0.0068,0.007,0.0071,0,0,0,0,0,0,0,-0.0209,-0.0206,-0.0187,-0.0185,-0.0181,-0.0156,-0.0151,-0.0102,-0.0074,-0.013,-0.0127,-0.0123,-0.001,0.0001,0.0011,0.0085,0.0064,0.0069,0.0072,0.0074,0.022,0.0221,0,0,0,0,0,0,-0.0221,-0.0208,-0.0189,-0.0185,-0.0193,-0.0156,-0.0151,-0.0151,-0.0076,-0.0065,-0.0124,-0.0122,-0.0008,0.0004,0.0016,0.0065,0.007,0.0075,0.0078,0.0219,0.022,0.0221,0,0,0,0,0,0,-0.0222,-0.022,-0.0191,-0.0196,-0.0191,-0.0157,-0.0157,-0.015,-0.0139,-0.0072,-0.0059,-0.012,-0.0007,0.0009,0.0054,0.007,0.0077,0.0082,0.0219,0.022,0.0221,0.0151,0,0,0,0,0,0,-0.0223,-0.0221,-0.0226,-0.0197,-0.0191,-0.0185,-0.0157,-0.015,-0.0138,-0.0134,-0.0064,-0.005,-0.0006,0.0046,0.0059,0.0078,0.0086,0.0218,0.0219,0.022,0.0153,0.015,0.0147,0,0,0,0,0,-0.0224,-0.0239,-0.0227,-0.0225,-0.0199,-0.0186,-0.018,-0.0153,-0.0139,-0.0139,-0.0092,-0.0052,0.0065,0.005,0.0066,0.0086,0.0217,0.0219,0.022,0.0154,0.015,0.0147,0,0,0,0,0,0,-0.0254,-0.0235,-0.0221,-0.0229,-0.0211,-0.0179,-0.0178,-0.0159,-0.0123,-0.0117,-0.0053,-0.0036,0.0013,0.0058,0.004,0.0134,0.0152,0.0156,0.0096,0.0093,0.0091,0.0075,0.0091,0,0,0,0,0,-0.0263,-0.0267,-0.0243,-0.0249,-0.0242,-0.0211,-0.0202,-0.0184,-0.015,-0.0135,-0.0087,-0.0026,0.0032,0.0066,0.0117,0.0163,0.0214,0.0191,0.0188,0.0186,0.0185,0.0288,0.0295,0.0226,0.0226,0.0226,0,0,-0.0275,-0.0266,-0.0268,-0.0255,-0.0238,-0.0237,-0.0204,-0.0197,-0.0189,-0.0122,-0.0096,-0.004,0.004,0.0089,0.0117,0.013,0.0225,0.0188,0.0184,0.0186,0.0291,0.0297,0.0303,0.0227,0.0227,0.0227,0,0,-0.0309,-0.0295,-0.0311,-0.03,-0.0283,-0.0261,-0.0262,-0.0232,-0.0211,-0.0182,-0.0124,-0.006,0.0011,0.008,0.0124,0.0141,0.0202,0.0159,0.014,0.024,0.0246,0.0252,0.0291,0.0301,0.0164,0.0164,0.0164,0,-0.0325,-0.0341,-0.0314,-0.0326,-0.0321,-0.0276,-0.029,-0.0262,-0.022,-0.0193,-0.0183,-0.0049,0.0013,0.0102,0.0105,0.0137,0.0179,0.014,0.0235,0.0243,0.0251,0.0289,0.0301,0.0161,0.0161,0.0162,0.0162,0,-0.037,-0.038,-0.039,-0.0387,-0.0376,-0.0382,-0.0341,-0.032,-0.0287,-0.0248,-0.0169,-0.0083,0.0003,0.0037,0.0074,0.0165,0.0169,0.0212,0.0237,0.0253,0.0292,0.0306,0.0156,0.0158,0.0159,0.0159,0,0,-0.0413,-0.0422,-0.0424,-0.0433,-0.041,-0.0407,-0.0386,-0.0346,-0.032,-0.026,-0.0211,-0.0104,-0.0048,0.0006,0.0077,0.0162,0.0241,0.0199,0.0205,0.0224,0.0416,0.0419,0.0434,0.03,0.0303,0.0306,0.0408,0,-0.0457,-0.0502,-0.0484,-0.0509,-0.0527,-0.0474,-0.0458,-0.041,-0.0351,-0.0292,-0.0179,-0.011,-0.006,-0.0016,0.0078,0.0206,0.028,0.0206,0.041,0.0415,0.0407,0.0453,0.0478,0.0573,0.0422,0.0425,0.0427,0,-0.0508,-0.0531,-0.0574,-0.0572,-0.0572,-0.0572,-0.0522,-0.0499,-0.0395,-0.0346,-0.0246,-0.0162,-0.0033,0.0007,0.0228,0.0175,0.0282,0.0377,0.0384,0.0425,0.0446,0.0543,0.0605,0.0729,0.0449,0.0447,0.0446,0,-0.0562,-0.0588,-0.0625,-0.0627,-0.0618,-0.0614,-0.0596,-0.0516,-0.0484,-0.0373,-0.0331,-0.0172,-0.0082,0.008,0.0261,0.0252,0.0495,0.0517,0.0615,0.0614,0.0696,0.0698,0.0898,0.0676,0.0676,0.0675,0.0675,0,-0.062,-0.0646,-0.0656,-0.0679,-0.0706,-0.0672,-0.0665,-0.0618,-0.0535,-0.0483,-0.0363,-0.0276,-0.0053,0.0107,0.0258,0.0475,0.0502,0.0618,0.066,0.0667,0.0665,0.0825,0.086,0.0679,0.0678,0.0677,0.0677,0,-0.0676,-0.0684,-0.0728,-0.0737,-0.0739,-0.0758,-0.0732,-0.0714,-0.0632,-0.0557,-0.0526,-0.0334,-0.012,0.0083,0.0361,0.0477,0.0756,0.0744,0.07,0.0734,0.0921,0.0948,0.1165,0.1244,0.0864,0.0865,0.0866,0,-0.071,-0.0743,-0.0781,-0.081,-0.0819,-0.0836,-0.0841,-0.0775,-0.0742,-0.0581,-0.0543,-0.0331,-0.0152,0.0218,0.0464,0.0719,0.0826,0.0871,0.0874,0.0946,0.1009,0.1022,0.1074,0.0941,0.0942,0.0943,0.0944,0,-0.0771,-0.0784,-0.0821,-0.0888,-0.0914,-0.0934,-0.0929,-0.0914,-0.0808,-0.0709,-0.0531,-0.0373,-0.0026,0.0298,0.0602,0.0756,0.0951,0.0899,0.103,0.1131,0.1109,0.1199,0.0806,0.0954,0.0953,0.0952,0.0952,0.0951,-0.0805,-0.085,-0.09,-0.0955,-0.0991,-0.101,-0.1001,-0.0948,-0.0862,-0.0653,-0.0524,-0.0208,0.0168,0.0619,0.0775,0.1087,0.1059,0.1194,0.1229,0.1242,0.1308,0.0893,0.1054,0.1054,0.1053,0.1053,0.1053,0,-0.0844,-0.0894,-0.096,-0.102,-0.1061,-0.106,-0.1035,-0.096,-0.0827,-0.0582,-0.0363,0.014,0.0517,0.086,0.1255,0.1419,0.1458,0.1501,0.1556,0.1602,0.1304,0.1297,0.1452,0.1452,0.1452,0.1452,0.1451,0.1451,-0.0866,-0.0939,-0.0976,-0.1056,-0.1092,-0.1086,-0.1054,-0.0889,-0.0687,-0.0263,0.0094,0.0368,0.0797,0.1337,0.1701,0.1736,0.1889,0.1857,0.1943,0.1753,0.1728,0.1704,0.171,0.1949,0.195,0.2245,0.2248,0.225]}],[{"header":{"parameterUnit":"m.s-1","parameterCategory":2,"la1":30.2991,"la2":30.254,"lo1":-89.0895,"lo2":-89.0444,"dy":0.0017,"dx":0.0017,"nx":28,"ny":28,"refTime":"2025-02-12T03:00:00:Z","depth":"2","parameterNumber":2,"parameterNumberName":"U-component_of_CURRENTS"},"data":[0,0,0,0,0,0,0,0,0,0,0,0,0,0,0,0,0,0,0,0,0,0,0,0,0,0,0,0,0,0,0,0,0,0,0,0,0,0,0,0,0,0,0,0,0,0,0,0,0,0,0,0,0,0,0,0,0,0,-0.2192,-0.2192,0,-0.2215,-0.2215,-0.2215,-0.2203,-0.2203,-0.2202,-0.2202,-0.2179,-0.2179,-0.2179,0,0,0,0,0,0,0,0,0,0,0,0,0,-0.2134,-0.2135,-0.2192,-0.2192,-0.2193,-0.2215,-0.2215,-0.2215,-0.2203,-0.2203,-0.2202,-0.2202,-0.2179,-0.2179,-0.2179,0,0,0,0,0,0,0,0,0,0,0,0,0,-0.2156,-0.2136,-0.2192,-0.2191,-0.2192,-0.2215,-0.2215,-0.2215,-0.2203,-0.2203,-0.2202,-0.2201,-0.2179,-0.2179,-0.2179,-0.2189,0,0,-0.2178,-0.2178,0,0,0,0,0,0,0,0,-0.2155,-0.2158,-0.2191,-0.2191,-0.2192,-0.2207,-0.2186,-0.2205,-0.2203,-0.2197,-0.2202,-0.2201,-0.2186,-0.2185,-0.2189,-0.2188,-0.2187,-0.2178,-0.2177,-0.2177,-0.2177,0,0,0,0,0,0,0,-0.2154,-0.2157,-0.2199,-0.2191,-0.2192,-0.2189,-0.2191,-0.219,-0.2192,-0.2197,-0.2197,-0.2203,-0.2186,-0.2189,-0.2188,-0.2187,-0.2178,-0.2177,-0.2177,-0.2177,-0.2211,-0.2212,0,0,0,0,0,0,-0.2156,-0.2156,-0.2198,-0.22,-0.2174,-0.219,-0.2193,-0.2201,-0.2193,-0.2192,-0.2203,-0.2202,-0.219,-0.2188,-0.2187,-0.2215,-0.2177,-0.2177,-0.2177,-0.221,-0.2211,-0.2212,0,0,0,0,0,0,-0.2155,-0.216,-0.2197,-0.218,-0.2184,-0.2192,-0.2202,-0.2202,-0.2206,-0.2199,-0.2196,-0.2208,-0.2189,-0.2187,-0.2193,-0.2213,-0.2177,-0.2177,-0.2209,-0.221,-0.2212,-0.2259,0,0,0,0,0,0,-0.2153,-0.2159,-0.2163,-0.218,-0.2186,-0.2215,-0.2203,-0.2203,-0.2212,-0.2211,-0.2202,-0.2199,-0.2189,-0.2194,-0.2193,-0.2212,-0.2176,-0.2207,-0.2209,-0.2211,-0.2256,-0.2262,-0.2268,0,0,0,0,0,-0.2151,-0.2161,-0.2163,-0.2168,-0.2192,-0.2216,-0.2219,-0.222,-0.2213,-0.222,-0.2216,-0.2199,-0.2206,-0.2195,-0.2193,-0.2212,-0.2206,-0.2209,-0.2211,-0.2254,-0.2261,-0.2267,0,0,0,0,0,0,-0.2136,-0.2162,-0.2164,-0.2181,-0.2199,-0.2215,-0.2221,-0.2224,-0.2227,-0.2223,-0.2211,-0.2209,-0.2222,-0.2212,-0.22,-0.2229,-0.2205,-0.2207,-0.2238,-0.2244,-0.225,-0.2237,-0.2176,0,0,0,0,0,-0.2136,-0.2149,-0.2175,-0.2186,-0.2197,-0.2209,-0.2218,-0.2223,-0.2231,-0.2232,-0.2228,-0.2226,-0.2233,-0.2233,-0.2235,-0.2249,-0.2219,-0.2261,-0.2267,-0.2272,-0.2262,-0.2248,-0.2251,-0.2221,-0.2221,-0.222,0,0,-0.2132,-0.2148,-0.2155,-0.2184,-0.2195,-0.2218,-0.2212,-0.2231,-0.2248,-0.2229,-0.2244,-0.2244,-0.2241,-0.226,-0.2265,-0.2252,-0.2264,-0.2275,-0.2279,-0.2266,-0.2251,-0.2253,-0.2256,-0.2222,-0.2222,-0.2222,0,0,-0.2136,-0.2148,-0.2162,-0.2184,-0.2209,-0.2223,-0.2231,-0.2253,-0.2259,-0.2279,-0.2272,-0.2282,-0.229,-0.2294,-0.2297,-0.2333,-0.2295,-0.2339,-0.2356,-0.2344,-0.2346,-0.2347,-0.2306,-0.2303,-0.2342,-0.2342,-0.2342,0,-0.2129,-0.2152,-0.217,-0.2194,-0.2211,-0.2227,-0.225,-0.2266,-0.2286,-0.2294,-0.2288,-0.2308,-0.2306,-0.2328,-0.2343,-0.2345,-0.2319,-0.2331,-0.235,-0.2351,-0.2351,-0.2308,-0.2304,-0.2345,-0.2344,-0.2344,-0.2344,0,-0.2146,-0.2168,-0.218,-0.2215,-0.2238,-0.226,-0.229,-0.2309,-0.2318,-0.2331,-0.2352,-0.2353,-0.2361,-0.2372,-0.2368,-0.2381,-0.2355,-0.2358,-0.2329,-0.2357,-0.231,-0.2305,-0.2348,-0.2347,-0.2347,-0.2346,0,0,-0.2118,-0.2179,-0.2182,-0.2202,-0.2251,-0.2269,-0.2307,-0.2341,-0.2355,-0.2377,-0.2389,-0.2413,-0.2407,-0.2409,-0.2409,-0.2401,-0.2386,-0.2382,-0.2381,-0.2334,-0.2334,-0.2246,-0.2232,-0.2393,-0.2393,-0.2393,-0.2297,0,-0.2122,-0.2166,-0.2199,-0.2239,-0.2263,-0.23,-0.2332,-0.2365,-0.2384,-0.24,-0.2411,-0.2421,-0.2425,-0.2425,-0.2423,-0.2398,-0.2377,-0.241,-0.232,-0.2316,-0.223,-0.2225,-0.2082,-0.1978,-0.2292,-0.2291,-0.229,0,-0.212,-0.2151,-0.2192,-0.225,-0.2263,-0.229,-0.2334,-0.2367,-0.2403,-0.2416,-0.2433,-0.2435,-0.2439,-0.2431,-0.2394,-0.2415,-0.2373,-0.2347,-0.2343,-0.2237,-0.222,-0.2004,-0.1957,-0.2282,-0.2282,-0.2283,-0.2284,0,-0.2076,-0.2142,-0.2171,-0.2193,-0.2262,-0.2283,-0.2318,-0.2364,-0.2387,-0.2418,-0.2426,-0.2437,-0.2428,-0.24,-0.2351,-0.2373,-0.2284,-0.2309,-0.2184,-0.2176,-0.2021,-0.2,-0.2262,-0.2262,-0.2262,-0.2263,-0.2263,0,-0.206,-0.208,-0.2152,-0.2165,-0.2194,-0.2256,-0.2284,-0.2322,-0.2367,-0.2379,-0.2422,-0.2415,-0.242,-0.2377,-0.2338,-0.223,-0.2271,-0.2167,-0.2144,-0.2033,-0.2016,-0.2259,-0.226,-0.2259,-0.226,-0.226,-0.2261,0,-0.1999,-0.2052,-0.2083,-0.2153,-0.2172,-0.2189,-0.2258,-0.2274,-0.2333,-0.2346,-0.2354,-0.2387,-0.2331,-0.2303,-0.2236,-0.2192,-0.2112,-0.2058,-0.1911,-0.1872,-0.2015,-0.202,-0.1918,-0.1914,-0.1911,-0.1908,-0.1906,0,-0.1968,-0.1979,-0.2048,-0.206,-0.2088,-0.2129,-0.2151,-0.2235,-0.2256,-0.2313,-0.2304,-0.2281,-0.2216,-0.209,-0.2008,-0.1894,-0.1986,-0.1711,-0.1734,-0.1991,-0.198,-0.199,-0.1999,-0.1543,-0.1538,-0.1534,-0.153,0,-0.1896,-0.1922,-0.1945,-0.1972,-0.1997,-0.2027,-0.207,-0.2083,-0.2168,-0.2175,-0.2154,-0.2106,-0.2004,-0.1822,-0.1699,-0.163,-0.1726,-0.1622,-0.1913,-0.1661,-0.1632,-0.1623,-0.1645,-0.1493,-0.1497,-0.1499,-0.1501,-0.1503,-0.1824,-0.1819,-0.1849,-0.1859,-0.189,-0.1893,-0.1867,-0.1919,-0.1917,-0.1894,-0.1943,-0.1811,-0.1774,-0.1496,-0.1395,-0.1327,-0.1455,-0.1405,-0.142,-0.1439,-0.1422,-0.1389,-0.1199,-0.1201,-0.1203,-0.1204,-0.1206,0,-0.172,-0.1725,-0.1732,-0.1737,-0.1711,-0.1771,-0.178,-0.1721,-0.1661,-0.1664,-0.1607,-0.1381,-0.1245,-0.1212,-0.1043,-0.1006,-0.1023,-0.0974,-0.1006,-0.1043,-0.1075,-0.1043,-0.0718,-0.0716,-0.0715,-0.0714,0,0,-0.1667,-0.1629,-0.1628,-0.1545,-0.1545,-0.1456,-0.1425,-0.1358,-0.132,-0.1201,-0.1128,-0.1186,-0.1171,-0.095,-0.0895,-0.0777,-0.0906,-0.0736,-0.1126,-0.1201,-0.1232,-0.1317,-0.1306,0,0,0,0,0]},{"header":{"parameterUnit":"m.s-1","parameterCategory":2,"la1":30.2991,"la2":30.254,"lo1":-89.0895,"lo2":-89.0444,"dy":0.0017,"dx":0.0017,"nx":28,"ny":28,"refTime":"2025-02-12T03:00:00:Z","depth":"2","parameterNumber":3,"parameterNumberName":"V-component_of_CURRENTS"},"data":[0,0,0,0,0,0,0,0,0,0,0,0,0,0,0,0,0,0,0,0,0,0,0,0,0,0,0,0,0,0,0,0,0,0,0,0,0,0,0,0,0,0,0,0,0,0,0,0,0,0,0,0,0,0,0,0,0,0,-0.037,-0.037,0,-0.032,-0.0319,-0.0319,-0.028,-0.0279,-0.0279,-0.0279,-0.0166,-0.0163,-0.0161,0,0,0,0,0,0,0,0,0,0,0,0,0,-0.0392,-0.0392,-0.037,-0.037,-0.0369,-0.032,-0.0319,-0.0318,-0.028,-0.0279,-0.0279,-0.0279,-0.0167,-0.0164,-0.016,0,0,0,0,0,0,0,0,0,0,0,0,0,-0.0365,-0.0392,-0.037,-0.0345,-0.0342,-0.032,-0.0319,-0.0318,-0.028,-0.0279,-0.0279,-0.0278,-0.0168,-0.0164,-0.016,-0.0143,0,0,-0.0147,-0.0146,0,0,0,0,0,0,0,0,-0.0367,-0.0364,-0.0349,-0.0346,-0.0343,-0.0306,-0.0286,-0.0257,-0.028,-0.0302,-0.0279,-0.0278,-0.0208,-0.0201,-0.0192,-0.0138,-0.0133,-0.0147,-0.0145,-0.0143,-0.0142,0,0,0,0,0,0,0,-0.0369,-0.0366,-0.0349,-0.0348,-0.0345,-0.0322,-0.0318,-0.028,-0.0256,-0.03,-0.0298,-0.0294,-0.0206,-0.0196,-0.0189,-0.0131,-0.0147,-0.0144,-0.0141,-0.0139,-0.0041,-0.0041,0,0,0,0,0,0,-0.038,-0.0368,-0.0351,-0.0348,-0.0355,-0.0322,-0.0317,-0.0318,-0.0258,-0.0249,-0.0294,-0.0292,-0.0203,-0.0193,-0.0184,-0.0152,-0.0143,-0.0139,-0.0137,-0.0041,-0.0041,-0.0041,0,0,0,0,0,0,-0.038,-0.0379,-0.0353,-0.0357,-0.0352,-0.0322,-0.0323,-0.0317,-0.0306,-0.0254,-0.0244,-0.0289,-0.0202,-0.019,-0.0154,-0.0148,-0.0137,-0.0133,-0.0041,-0.0041,-0.0041,-0.0093,0,0,0,0,0,0,-0.0381,-0.038,-0.0384,-0.0358,-0.0353,-0.0346,-0.0323,-0.0316,-0.0305,-0.0302,-0.0246,-0.0236,-0.0201,-0.0161,-0.015,-0.0142,-0.013,-0.0041,-0.0041,-0.0041,-0.0092,-0.0095,-0.0098,0,0,0,0,0,-0.0382,-0.0394,-0.0385,-0.0382,-0.036,-0.0346,-0.0341,-0.0317,-0.0305,-0.0305,-0.0267,-0.0237,-0.0151,-0.0158,-0.0145,-0.0136,-0.0041,-0.0041,-0.0041,-0.009,-0.0094,-0.0097,0,0,0,0,0,0,-0.0406,-0.039,-0.038,-0.0386,-0.0369,-0.034,-0.0338,-0.0321,-0.0292,-0.0287,-0.0237,-0.0224,-0.0191,-0.0157,-0.0165,-0.0106,-0.009,-0.0087,-0.0132,-0.0135,-0.0138,-0.0152,-0.0127,0,0,0,0,0,-0.0414,-0.0418,-0.0396,-0.0401,-0.0395,-0.0367,-0.0358,-0.0342,-0.0314,-0.0301,-0.0263,-0.0219,-0.018,-0.0154,-0.0118,-0.0085,-0.0041,-0.007,-0.0073,-0.0076,-0.0078,0.0004,0.0008,-0.0039,-0.004,-0.004,0,0,-0.0424,-0.0416,-0.0418,-0.0406,-0.039,-0.0389,-0.036,-0.0352,-0.0347,-0.0292,-0.0272,-0.0231,-0.0175,-0.0142,-0.0123,-0.0111,-0.0042,-0.0075,-0.0078,-0.0079,0.0005,0.0009,0.0014,-0.0039,-0.0039,-0.0039,0,0,-0.0451,-0.0439,-0.0453,-0.0443,-0.0427,-0.0408,-0.0408,-0.0381,-0.0364,-0.0341,-0.0299,-0.0253,-0.0201,-0.0154,-0.0125,-0.0119,-0.0064,-0.0109,-0.0128,-0.0048,-0.0043,-0.0039,0.0009,0.0018,-0.0105,-0.0105,-0.0105,0,-0.0464,-0.0478,-0.0454,-0.0463,-0.046,-0.042,-0.0432,-0.0409,-0.0373,-0.0355,-0.0343,-0.0249,-0.0204,-0.0147,-0.0149,-0.0125,-0.0083,-0.0121,-0.0052,-0.0046,-0.004,0.0008,0.0019,-0.0107,-0.0107,-0.0107,-0.0106,0,-0.0501,-0.0509,-0.0516,-0.0515,-0.0506,-0.0509,-0.0477,-0.046,-0.0433,-0.0403,-0.0349,-0.0284,-0.0225,-0.0202,-0.0175,-0.0112,-0.0099,-0.007,-0.0045,-0.0039,0.0011,0.0024,-0.0111,-0.011,-0.0109,-0.0109,0,0,-0.0536,-0.0543,-0.0544,-0.0554,-0.0535,-0.0533,-0.0518,-0.0491,-0.0474,-0.0425,-0.0392,-0.0318,-0.0276,-0.024,-0.0187,-0.0119,-0.0049,-0.0086,-0.008,-0.0044,0.0107,0.0112,0.0127,-0.0005,-0.0003,-0.0001,0.012,0,-0.0572,-0.061,-0.0595,-0.0619,-0.0635,-0.0594,-0.0584,-0.055,-0.0504,-0.0461,-0.0377,-0.0328,-0.0291,-0.0259,-0.0186,-0.0081,-0.0016,-0.0086,0.01,0.0104,0.0106,0.0142,0.0117,0.0223,0.0132,0.0134,0.0136,0,-0.0614,-0.0634,-0.0672,-0.0677,-0.0678,-0.068,-0.0648,-0.0632,-0.0555,-0.0517,-0.0444,-0.0379,-0.0281,-0.0247,-0.0064,-0.0111,-0.0013,0.0069,0.0077,0.011,0.0134,0.0206,0.0249,0.0157,0.0156,0.0154,0.0153,0,-0.0661,-0.0684,-0.0719,-0.0722,-0.072,-0.0721,-0.0709,-0.0651,-0.063,-0.0546,-0.0513,-0.0392,-0.032,-0.0182,-0.0025,-0.0037,0.018,0.0192,0.0288,0.0288,0.0318,0.0317,0.0327,0.0327,0.0327,0.0326,0.0326,0,-0.0711,-0.0735,-0.0746,-0.0768,-0.0798,-0.0771,-0.0775,-0.074,-0.0679,-0.0644,-0.0546,-0.048,-0.0297,-0.0156,-0.0023,0.017,0.0189,0.0291,0.0331,0.0296,0.0292,0.0276,0.0269,0.0331,0.033,0.0329,0.0328,0,-0.076,-0.0767,-0.081,-0.0822,-0.0827,-0.0847,-0.0834,-0.0827,-0.0761,-0.0708,-0.0683,-0.0527,-0.0339,-0.0161,0.008,0.0177,0.0356,0.0419,0.0346,0.0374,0.0405,0.0393,0.0535,0.0537,0.0538,0.0539,0.054,0,-0.079,-0.0819,-0.0858,-0.0888,-0.0898,-0.0918,-0.0929,-0.0879,-0.0858,-0.0728,-0.07,-0.0515,-0.0367,-0.0036,0.0179,0.0413,0.0415,0.0506,0.0483,0.0408,0.0432,0.0418,0.0405,0.0498,0.0499,0.0499,0.0499,0,-0.0845,-0.0858,-0.0893,-0.0957,-0.0986,-0.1011,-0.1013,-0.1006,-0.0924,-0.0844,-0.0697,-0.0564,-0.0256,0.0009,0.0288,0.0418,0.0461,0.052,0.0503,0.0436,0.038,0.04,0.0388,0.0503,0.0502,0.0502,0.0502,0.0502,-0.0877,-0.0918,-0.0965,-0.1021,-0.1059,-0.1085,-0.1089,-0.105,-0.0987,-0.0832,-0.0701,-0.0451,-0.0239,0.019,0.0366,0.0531,0.0532,0.0569,0.0566,0.0562,0.0524,0.0472,0.0603,0.0603,0.0603,0.0603,0.0604,0,-0.0916,-0.0961,-0.1024,-0.1085,-0.113,-0.1132,-0.1127,-0.109,-0.0993,-0.0806,-0.0622,-0.033,-0.0036,0.0194,0.0458,0.0592,0.0577,0.0606,0.0558,0.0555,0.0551,0.051,0.0587,0.0587,0.0588,0.0588,0,0,-0.0938,-0.1006,-0.104,-0.1125,-0.1164,-0.1186,-0.1173,-0.1088,-0.0947,-0.074,-0.0522,-0.0264,0.0005,0.0184,0.0346,0.0479,0.0477,0.0487,0.0486,0.0405,0.04,0.0518,0.0449,0,0,0,0,0]}],[{"header":{"parameterUnit":"m.s-1","parameterCategory":2,"la1":30.2991,"la2":30.254,"lo1":-89.0895,"lo2":-89.0444,"dy":0.0017,"dx":0.0017,"nx":28,"ny":28,"refTime":"2025-02-12T03:00:00:Z","depth":"4","parameterNumber":2,"parameterNumberName":"U-component_of_CURRENTS"},"data":[0,0,0,0,0,0,0,0,0,0,0,0,0,0,0,0,0,0,0,0,0,0,0,0,0,0,0,0,0,0,0,0,0,0,0,0,0,0,0,0,0,0,0,0,0,0,0,0,0,0,0,0,0,0,0,0,0,0,-0.1516,-0.1517,0,-0.1573,-0.1573,-0.1574,-0.1611,-0.1611,-0.1611,-0.1612,-0.1644,-0.1645,-0.1646,0,0,0,0,0,0,0,0,0,0,0,0,0,-0.1437,-0.1438,-0.1516,-0.1517,-0.1517,-0.1573,-0.1573,-0.1574,-0.1611,-0.1611,-0.1611,-0.1612,-0.1644,-0.1645,-0.1646,0,0,0,0,0,0,0,0,0,0,0,0,0,-0.1479,-0.1438,-0.1516,-0.1543,-0.1547,-0.1573,-0.1573,-0.1574,-0.161,-0.1611,-0.1612,-0.1612,-0.1644,-0.1645,-0.1646,-0.164,0,0,-0.1648,-0.1648,0,0,0,0,0,0,0,0,-0.1476,-0.1481,-0.1538,-0.1542,-0.1545,-0.1587,-0.1558,-0.1595,-0.161,-0.1585,-0.1612,-0.1612,-0.1623,-0.1626,-0.1634,-0.1641,-0.1643,-0.1648,-0.1649,-0.1649,-0.1649,0,0,0,0,0,0,0,-0.1473,-0.1479,-0.1537,-0.1539,-0.1543,-0.1553,-0.1559,-0.1565,-0.1599,-0.1587,-0.159,-0.1599,-0.1625,-0.1633,-0.1635,-0.1643,-0.1648,-0.1649,-0.1649,-0.165,-0.1698,-0.1698,0,0,0,0,0,0,-0.1469,-0.1477,-0.1535,-0.1539,-0.1513,-0.1554,-0.1561,-0.1571,-0.1599,-0.1605,-0.1598,-0.16,-0.1631,-0.1634,-0.1636,-0.1692,-0.1649,-0.165,-0.165,-0.1697,-0.1698,-0.1699,0,0,0,0,0,0,-0.1467,-0.1474,-0.1533,-0.151,-0.1518,-0.1555,-0.1566,-0.1572,-0.1607,-0.1608,-0.1613,-0.163,-0.1632,-0.1635,-0.1668,-0.1691,-0.165,-0.1651,-0.1696,-0.1697,-0.1698,-0.1765,0,0,0,0,0,0,-0.1465,-0.1473,-0.1491,-0.151,-0.152,-0.1566,-0.1566,-0.1573,-0.1611,-0.1615,-0.1637,-0.1639,-0.1632,-0.1667,-0.1669,-0.1692,-0.1652,-0.1695,-0.1696,-0.1698,-0.1761,-0.1768,-0.1774,0,0,0,0,0,-0.1462,-0.1481,-0.1491,-0.1499,-0.1539,-0.1568,-0.1574,-0.16,-0.1612,-0.1632,-0.1651,-0.1639,-0.1677,-0.1669,-0.1671,-0.1694,-0.1694,-0.1696,-0.1698,-0.1759,-0.1767,-0.1773,0,0,0,0,0,0,-0.1457,-0.1487,-0.1499,-0.1527,-0.1554,-0.1575,-0.16,-0.1616,-0.1647,-0.1658,-0.1656,-0.166,-0.1695,-0.1685,-0.1675,-0.171,-0.1681,-0.1683,-0.1727,-0.1734,-0.174,-0.1724,-0.1652,0,0,0,0,0,-0.1464,-0.1488,-0.1514,-0.154,-0.1556,-0.1583,-0.1603,-0.1622,-0.1646,-0.1662,-0.1678,-0.1689,-0.1699,-0.1711,-0.1717,-0.1741,-0.1711,-0.1753,-0.176,-0.1765,-0.1752,-0.173,-0.1733,-0.1704,-0.1704,-0.1704,0,0,-0.1471,-0.149,-0.1505,-0.1542,-0.1565,-0.1593,-0.1597,-0.1637,-0.1664,-0.1658,-0.1709,-0.1716,-0.171,-0.1738,-0.1752,-0.1737,-0.1761,-0.1767,-0.1772,-0.1755,-0.1732,-0.1735,-0.1737,-0.1706,-0.1705,-0.1705,0,0,-0.1486,-0.1514,-0.1537,-0.1563,-0.1605,-0.162,-0.1638,-0.1676,-0.1701,-0.1744,-0.1743,-0.1762,-0.179,-0.1784,-0.1783,-0.1823,-0.1794,-0.1834,-0.1854,-0.1834,-0.1836,-0.1837,-0.1817,-0.1816,-0.1836,-0.1837,-0.1837,0,-0.1495,-0.1524,-0.1549,-0.1578,-0.1604,-0.1635,-0.1666,-0.1694,-0.174,-0.1756,-0.177,-0.18,-0.1804,-0.1814,-0.1833,-0.1836,-0.1822,-0.1831,-0.1842,-0.1842,-0.1842,-0.1821,-0.1819,-0.184,-0.184,-0.1839,-0.1839,0,-0.1518,-0.1554,-0.1573,-0.1617,-0.1648,-0.1682,-0.1719,-0.1756,-0.179,-0.181,-0.1846,-0.1852,-0.1861,-0.1872,-0.187,-0.1876,-0.1865,-0.1853,-0.1823,-0.1849,-0.1826,-0.1822,-0.1845,-0.1844,-0.1843,-0.1842,0,0,-0.1501,-0.1574,-0.1583,-0.1612,-0.1673,-0.1696,-0.1748,-0.1788,-0.1813,-0.1859,-0.188,-0.1906,-0.1908,-0.1905,-0.1903,-0.1892,-0.1894,-0.1882,-0.1879,-0.1862,-0.1855,-0.1735,-0.1719,-0.1892,-0.1891,-0.1891,-0.1844,0,-0.1512,-0.1567,-0.1604,-0.1661,-0.1691,-0.1738,-0.1777,-0.1821,-0.1855,-0.1885,-0.1894,-0.1916,-0.1921,-0.193,-0.1922,-0.1902,-0.1885,-0.1907,-0.1831,-0.1829,-0.1718,-0.1711,-0.1889,-0.1841,-0.184,-0.1839,-0.1839,0,-0.1512,-0.1551,-0.1609,-0.1678,-0.1696,-0.1738,-0.1795,-0.1837,-0.1879,-0.1904,-0.1925,-0.1933,-0.1937,-0.1931,-0.19,-0.192,-0.1889,-0.1866,-0.1864,-0.1718,-0.17,-0.1805,-0.1832,-0.1833,-0.1833,-0.1834,-0.1834,0,-0.1467,-0.1549,-0.1596,-0.1623,-0.1706,-0.1743,-0.1789,-0.1843,-0.1872,-0.1915,-0.1929,-0.1939,-0.1941,-0.1914,-0.1879,-0.1897,-0.1825,-0.1839,-0.1696,-0.1688,-0.1784,-0.1783,-0.1793,-0.1793,-0.1793,-0.1793,-0.1793,0,-0.1444,-0.1483,-0.1585,-0.1608,-0.1659,-0.1729,-0.1778,-0.1822,-0.1873,-0.1884,-0.1935,-0.1922,-0.1937,-0.1903,-0.1873,-0.1761,-0.1817,-0.1681,-0.1657,-0.1816,-0.1819,-0.1782,-0.1782,-0.1791,-0.1792,-0.1792,-0.1792,0,-0.1379,-0.1451,-0.1507,-0.1606,-0.164,-0.1677,-0.1769,-0.1788,-0.1856,-0.1868,-0.1882,-0.1912,-0.1864,-0.1848,-0.1791,-0.1731,-0.1651,-0.1594,-0.1758,-0.1748,-0.1536,-0.154,-0.1437,-0.1432,-0.1428,-0.1425,-0.1422,0,-0.1345,-0.1371,-0.1488,-0.1519,-0.1569,-0.1638,-0.1671,-0.1763,-0.1778,-0.1835,-0.1817,-0.1809,-0.1805,-0.1621,-0.1634,-0.1545,-0.1523,-0.1484,-0.1513,-0.1506,-0.1495,-0.1506,-0.1515,-0.1415,-0.1414,-0.1413,-0.1412,0,-0.1272,-0.133,-0.1374,-0.1438,-0.149,-0.1534,-0.1594,-0.1592,-0.1674,-0.1756,-0.1687,-0.1641,-0.1575,-0.1523,-0.1452,-0.1398,-0.1516,-0.1441,-0.145,-0.1477,-0.1479,-0.1474,-0.1488,-0.1398,-0.14,-0.1401,-0.1402,0,-0.1214,-0.1226,-0.1292,-0.133,-0.1394,-0.1398,-0.145,-0.1454,-0.148,-0.1553,-0.1522,-0.1512,-0.1549,-0.1443,-0.1383,-0.1312,-0.1301,-0.1266,-0.1284,-0.1301,-0.1275,-0.1259,-0.1069,0,0,0,0,0,-0.1145,-0.1142,-0.1173,-0.1207,-0.1264,-0.1293,-0.1375,-0.1427,-0.1511,-0.1417,-0.1465,-0.1394,-0.1303,-0.1309,-0.1202,-0.1324,-0.131,-0.1198,-0.1283,-0.1318,-0.1335,-0.1317,0,0,0,0,0,0,-0.1098,-0.1126,-0.113,-0.1089,-0.1085,-0.1125,-0.1168,-0.1231,-0.1191,-0.1281,-0.1232,-0.1303,-0.1231,-0.1321,-0.1166,-0.1166,-0.119,-0.1208,-0.1204,-0.1309,-0.1324,-0.1337,-0.1325,0,0,0,0,0]},{"header":{"parameterUnit":"m.s-1","parameterCategory":2,"la1":30.2991,"la2":30.254,"lo1":-89.0895,"lo2":-89.0444,"dy":0.0017,"dx":0.0017,"nx":28,"ny":28,"refTime":"2025-02-12T03:00:00:Z","depth":"4","parameterNumber":3,"parameterNumberName":"V-component_of_CURRENTS"},"data":[0,0,0,0,0,0,0,0,0,0,0,0,0,0,0,0,0,0,0,0,0,0,0,0,0,0,0,0,0,0,0,0,0,0,0,0,0,0,0,0,0,0,0,0,0,0,0,0,0,0,0,0,0,0,0,0,0,0,-0.0322,-0.0322,0,-0.0294,-0.0294,-0.0293,-0.0276,-0.0276,-0.0276,-0.0276,-0.0213,-0.0212,-0.021,0,0,0,0,0,0,0,0,0,0,0,0,0,-0.0328,-0.0328,-0.0322,-0.0322,-0.0322,-0.0294,-0.0294,-0.0293,-0.0276,-0.0276,-0.0276,-0.0276,-0.0214,-0.0212,-0.021,0,0,0,0,0,0,0,0,0,0,0,0,0,-0.0314,-0.0328,-0.0322,-0.031,-0.0309,-0.0294,-0.0293,-0.0293,-0.0276,-0.0276,-0.0276,-0.0276,-0.0215,-0.0212,-0.021,-0.0195,0,0,-0.0202,-0.0201,0,0,0,0,0,0,0,0,-0.0315,-0.0314,-0.0312,-0.0311,-0.031,-0.0289,-0.0273,-0.0259,-0.0276,-0.0287,-0.0276,-0.0276,-0.0236,-0.0232,-0.0226,-0.0192,-0.0189,-0.0202,-0.0201,-0.0199,-0.0199,0,0,0,0,0,0,0,-0.0316,-0.0315,-0.031,-0.0312,-0.031,-0.0295,-0.0293,-0.027,-0.0261,-0.0286,-0.0285,-0.0283,-0.0235,-0.0228,-0.0224,-0.0189,-0.0202,-0.02,-0.0198,-0.0197,-0.0153,-0.0153,0,0,0,0,0,0,-0.0323,-0.0316,-0.0311,-0.0309,-0.0313,-0.0295,-0.0293,-0.0295,-0.0262,-0.0257,-0.0284,-0.0283,-0.0233,-0.0227,-0.0222,-0.0214,-0.0199,-0.0197,-0.0196,-0.0153,-0.0153,-0.0153,0,0,0,0,0,0,-0.0323,-0.0323,-0.0312,-0.0312,-0.031,-0.0295,-0.0297,-0.0294,-0.0292,-0.026,-0.0255,-0.0285,-0.0232,-0.0225,-0.0207,-0.021,-0.0196,-0.0194,-0.0152,-0.0153,-0.0153,-0.0189,0,0,0,0,0,0,-0.0324,-0.0324,-0.033,-0.0313,-0.031,-0.031,-0.0297,-0.0294,-0.0291,-0.029,-0.0259,-0.0253,-0.0232,-0.0211,-0.0204,-0.0207,-0.0192,-0.0152,-0.0152,-0.0153,-0.0188,-0.0191,-0.0194,0,0,0,0,0,-0.0324,-0.0334,-0.0331,-0.033,-0.0319,-0.031,-0.0308,-0.0296,-0.0291,-0.0293,-0.0272,-0.0254,-0.021,-0.0209,-0.0201,-0.0203,-0.0152,-0.0152,-0.0153,-0.0186,-0.019,-0.0194,0,0,0,0,0,0,-0.034,-0.0333,-0.0329,-0.0336,-0.0327,-0.0308,-0.031,-0.03,-0.0286,-0.0285,-0.0255,-0.0247,-0.0233,-0.0214,-0.0214,-0.0193,-0.0179,-0.0178,-0.0207,-0.021,-0.0213,-0.0225,-0.019,0,0,0,0,0,-0.0347,-0.0353,-0.034,-0.0347,-0.0344,-0.0328,-0.0324,-0.0316,-0.03,-0.0294,-0.0272,-0.025,-0.023,-0.0217,-0.0197,-0.0183,-0.0152,-0.0181,-0.0184,-0.0186,-0.0191,-0.015,-0.0149,-0.0155,-0.0155,-0.0155,0,0,-0.0355,-0.0352,-0.0356,-0.0351,-0.0343,-0.0344,-0.0325,-0.0324,-0.0324,-0.0288,-0.0283,-0.0259,-0.0229,-0.0215,-0.0207,-0.0199,-0.0166,-0.0187,-0.019,-0.0193,-0.015,-0.0149,-0.0149,-0.0156,-0.0156,-0.0156,0,0,-0.0374,-0.0372,-0.0383,-0.0379,-0.0372,-0.0361,-0.0363,-0.0347,-0.034,-0.033,-0.0305,-0.0285,-0.0256,-0.0233,-0.0218,-0.0225,-0.0185,-0.0221,-0.0241,-0.0201,-0.02,-0.0199,-0.0149,-0.0143,-0.0221,-0.0221,-0.0221,0,-0.0385,-0.0398,-0.0384,-0.0393,-0.0395,-0.0371,-0.0383,-0.037,-0.035,-0.0344,-0.0335,-0.0289,-0.0264,-0.024,-0.0246,-0.0231,-0.0199,-0.023,-0.0205,-0.0203,-0.0201,-0.015,-0.0143,-0.0223,-0.0222,-0.0222,-0.0222,0,-0.0411,-0.0422,-0.0428,-0.0433,-0.0431,-0.0437,-0.0419,-0.0413,-0.04,-0.0384,-0.0361,-0.0324,-0.0296,-0.0285,-0.0268,-0.0245,-0.0223,-0.0214,-0.0195,-0.0202,-0.0148,-0.014,-0.0225,-0.0224,-0.0224,-0.0223,0,0,-0.0432,-0.0446,-0.0449,-0.0462,-0.0455,-0.0457,-0.0455,-0.0445,-0.0442,-0.0414,-0.0403,-0.0368,-0.0344,-0.0326,-0.0295,-0.0262,-0.0218,-0.0238,-0.0235,-0.0189,-0.0119,-0.0123,-0.0114,-0.0203,-0.0203,-0.0202,-0.0083,0,-0.0458,-0.0491,-0.0485,-0.0512,-0.0527,-0.0507,-0.0508,-0.0494,-0.047,-0.045,-0.0405,-0.0383,-0.0359,-0.0345,-0.0308,-0.0242,-0.0201,-0.0251,-0.012,-0.0116,-0.0118,-0.0106,-0.0199,-0.0077,-0.0075,-0.0074,-0.0073,0,-0.0484,-0.0504,-0.0541,-0.0559,-0.0563,-0.0574,-0.0568,-0.0564,-0.0524,-0.0504,-0.0466,-0.0426,-0.0373,-0.0354,-0.0239,-0.0272,-0.0204,-0.0149,-0.0143,-0.013,-0.0105,-0.007,-0.0058,-0.0059,-0.006,-0.0061,-0.0062,0,-0.0513,-0.0542,-0.0577,-0.0584,-0.0597,-0.0609,-0.0611,-0.0585,-0.0579,-0.0535,-0.0518,-0.0448,-0.0405,-0.032,-0.0209,-0.0222,-0.0073,-0.0073,-0.0006,-0.0005,-0.002,-0.0023,0.0009,0.0009,0.0008,0.0008,0.0008,0,-0.0541,-0.0569,-0.0598,-0.0618,-0.0658,-0.0649,-0.0671,-0.0655,-0.0626,-0.0611,-0.0551,-0.051,-0.0396,-0.0296,-0.0205,-0.0076,-0.0064,-0.0006,0.0023,-0.0037,-0.0043,-0.0014,-0.0018,0.0013,0.0012,0.0011,0.001,0,-0.0565,-0.0584,-0.063,-0.0662,-0.0676,-0.0704,-0.0721,-0.0725,-0.0692,-0.0665,-0.0652,-0.0546,-0.0415,-0.0288,-0.0127,-0.0068,0.0053,0.0097,0.0038,0.0061,0.0094,0.0086,0.0176,0.0177,0.0177,0.0178,0.0179,0,-0.0578,-0.0606,-0.0668,-0.0703,-0.0724,-0.0762,-0.0784,-0.0766,-0.0756,-0.0679,-0.0659,-0.0532,-0.045,-0.0209,-0.0093,0.0091,0.0107,0.0164,0.0108,0.009,0.011,0.0102,0.0093,0.018,0.018,0.018,0.018,0,-0.0604,-0.0632,-0.067,-0.0745,-0.0788,-0.0825,-0.0845,-0.084,-0.0796,-0.077,-0.064,-0.0516,-0.0362,-0.0195,-0.0047,0.0076,0.0117,0.0171,0.017,0.0118,0.0096,0.0113,0.0104,0.0182,0.0182,0.0182,0.0182,0,-0.0621,-0.0658,-0.0715,-0.0773,-0.0834,-0.0863,-0.0874,-0.0837,-0.0813,-0.0712,-0.0665,-0.0495,-0.039,-0.0199,-0.0065,0.0056,0.007,0.0085,0.0088,0.0087,0.0011,-0.0033,0.0044,0,0,0,0,0,-0.063,-0.0673,-0.0736,-0.0799,-0.0858,-0.0886,-0.0899,-0.0891,-0.0845,-0.0753,-0.0701,-0.0549,-0.0331,-0.0231,-0.0108,-0.0085,0.0064,0.0057,0.0077,0.0196,0.0193,0.0116,0,0,0,0,0,0,-0.0639,-0.0702,-0.0734,-0.0804,-0.0847,-0.0899,-0.0908,-0.0879,-0.0811,-0.0745,-0.0617,-0.0539,-0.0322,-0.0393,-0.0108,-0.0073,-0.0051,0.0166,0.0167,0.0197,0.0195,0.0192,0.0113,0,0,0,0,0]}]]